Regional Weather Roundup
Issued by NWS Jackson, KY

Home | Current Version | Previous Version | Graphics & Text | Print | Product List | Glossary On
Versions: 1 2 3 4 5 6 7 8 9 10 11 12 13 14 15 16 17 18 19 20 21 22 23 24 25 26 27 28 29 30 31 32 33 34 35 36 37 38 39 40 41 42 43 44 45 46 47 48 49 50
000
ASUS43 KJKL 300210
RWRJKL

EAST KENTUCKY HOURLY WEATHER ROUNDUP
NATIONAL WEATHER SERVICE JACKSON KY
1000 PM EDT MON JUN 29 2015

NOTE: "FAIR" INDICATES FEW OR NO CLOUDS BELOW 12,000 FEET WITH
NO SIGNIFICANT WEATHER AND/OR OBSTRUCTIONS TO VISIBILITY.

* THESE REPORTS ARE NOT UNDER NWS QUALITY CONTROL AND MAY NOT
  REPORT WEATHER SUCH AS PRECIPITATION AND FOG.

KYZ079-080-083-085-087-088-110-112-115-119-120-300300
...EASTERN KENTUCKY...

CITY           SKY/WX    TMP DP  RH WIND       PRES   REMARKS
JACKSON        CLOUDY    67  65  93 CALM      29.90R
LONDON         LGT RAIN  70  65  84 S5        29.91R
SOMERSET*      CLOUDY    66  64  94 SW5       29.91R
MONTICELLO*    CLOUDY    68  68 100 CALM      29.93F
MIDDLESBORO*   MOCLDY    66  65  97 CALM      29.94R
HARLAN APT*      N/A     66  66 100 CALM      29.94S
HAZARD APT*    MOCLDY    70  64  83 S5        29.92R
BLACK MTN*       N/A     61  61 100 SW9         N/A
PIKEVILLE APT* PTCLDY    70  63  78 CALM      29.91R
BIG SANDY*     CLOUDY    72  65  78 CALM      29.89S
MOREHEAD APT*  CLOUDY    66  63  88 S8        29.89R
$$

KYZ035-036-041-042-044-050-067-078-099-300300
...CENTRAL KENTUCKY...

CITY           SKY/WX    TMP DP  RH WIND       PRES   REMARKS
MT STERLING*   CLOUDY    66  64  94 SW8       29.88R
FLEMING/MASON* LGT RAIN N/A N/A N/A S3        29.87R
DANVILLE*      CLOUDY    68  64  88 SW9       29.89R
RICHMOND*      CLOUDY    70  64  83 SW9       29.88R
LEXINGTON      MOCLDY    69  66  90 S8        29.86R
FRANKFORT      PTCLDY    71  68  90 SW3       29.84R
$$

KYZ091>093-OHZ055-061-077-WVZ005-015-034-035-042-300300
...SOUTHERN OHIO/WEST VIRGINIA...

CITY           SKY/WX    TMP DP  RH WIND       PRES   REMARKS
COVINGTON      PTCLDY    70  65  84 SW3       29.83S
COLUMBUS       PTCLDY    65  62  90 CALM      29.81S
DAYTON         MOCLDY    65  63  93 CALM      29.83F
WILMINGTON     MOCLDY    67  64  90 CALM      29.82R
HUNTINGTON     CLOUDY    68  66  93 S5        29.85R
CHARLESTON     RAIN      68  66  93 SE7       29.88R FOG
PINEVILLE*     CLOUDY    66  64  93 MISG      29.98S
BECKLEY        CLOUDY    68  57  68 SE8       29.98R
BLUEFIELD      MOCLDY    70  55  59 S8        30.01R
$$

VAZ002-007-008-TNZ017-027-036-066-071-300300
...SOUTHWEST VIRGINIA/EAST TENNESSEE...

CITY           SKY/WX    TMP DP  RH WIND       PRES   REMARKS
WISE*          LGT RAIN  66  64  94 S9        30.00F
JONESVILLE*      N/A    N/A N/A N/A MISG        N/A
ABINGDON*      CLOUDY    73  61  65 CALM      29.99S
BRISTOL        MOCLDY    75  61  61 SW5       29.96R
KNOXVILLE      MOCLDY    78  64  61 S9        29.93R
OAK RIDGE      MOCLDY    79  64  60 CALM      29.94S
CROSSVILLE     MOCLDY    73  65  75 VRB3      29.96S
NASHVILLE      MOCLDY    79  69  71 VRB3      29.89R THUNDER
$$

...KEY TO REMARKS...
VSB - VISIBILITY IN MILES
WCI - WIND CHILL INDEX
HX  - HEAT INDEX

$$



USA.gov is the U.S. government's official web portal to all federal, state and local government web resources and services.